This demonstration page uses our WeatherBlox Daily Observations layout. Learn more.

Left ArrowRight Arrow

34.74481, -87.66753

Hourly Observations for October 1, 2016

Temp ( °F °C ) Dew Point ( °F °C ) Humidity (%) Winds ( mph kmh ) Pressure ( in mb ) Visibility ( mi km ) Precip ( " mm )
12:53 am 00:53 Clear 57 13.9 50 10 78 78 Calm 30.06 1018 10 16 0.00 0.00
1:53 am 01:53 Clear 54 12.2 50 10 87 87 Calm 30.06 1018 10 16 0.00 0.00
2:53 am 02:53 Clear 53 11.7 50 10 89 89 Calm 30.05 1018 10 16 0.00 0.00
3:53 am 03:53 Clear 53 11.7 50 10 89 89 Calm 30.05 1018 10 16 0.00 0.00
4:53 am 04:53 Clear 53 11.7 49 9.4 86 86 Calm 30.05 1018 10 16 0.00 0.00
5:53 am 05:53 Clear 52 11.1 49 9.4 89 89 Calm 30.07 1018 9 14 0.00 0.00
6:53 am 06:53 Sunny 51 10.6 48 8.9 89 89 Calm 30.09 1019 8 13 0.00 0.00
7:53 am 07:53 Sunny 57 13.9 52 11.1 83 83 Calm 30.10 1019 10 16 0.00 0.00
8:53 am 08:53 Cloudy 63 17.2 52 11.1 68 68 W 5 7 30.11 1020 10 16 0.00 0.00
9:53 am 09:53 Cloudy 67 19.4 52 11.1 59 59 W 8 13 30.12 1020 10 16 0.00 0.00
10:53 am 10:53 Cloudy 71 21.7 53 11.7 53 53 W 9 15 30.11 1020 10 16 0.00 0.00
11:53 am 11:53 Sunny 74 23.3 54 12.2 50 50 W 8 13 30.10 1019 10 16 0.00 0.00
12:53 pm 12:53 Partly Cloudy 79 26.1 51 10.6 38 38 WNW 9 15 30.07 1018 10 16 0.00 0.00
1:53 pm 13:53 Cloudy 76 24.4 52 11.1 43 43 WNW 12 19 30.06 1018 10 16 0.00 0.00
2:53 pm 14:53 Cloudy 77 25 51 10.6 40 40 WNW 10 17 30.04 1017 10 16 0.00 0.00
3:53 pm 15:53 Cloudy 76 24.4 50 10 40 40 NW 7 11 30.04 1017 10 16 0.00 0.00
4:53 pm 16:53 Cloudy 76 24.4 50 10 40 40 WSW 6 9 30.04 1017 10 16 0.00 0.00
5:53 pm 17:53 Cloudy 74 23.3 52 11.1 46 46 NW 3 6 30.05 1018 10 16 0.00 0.00
6:53 pm 18:53 Mostly Clear 69 20.6 54 12.2 59 59 NNW 3 6 30.05 1018 10 16 0.00 0.00
7:53 pm 19:53 Mostly Cloudy 67 19.4 55 12.8 66 66 Calm 30.05 1018 10 16 0.00 0.00
8:53 pm 20:53 Clear 63 17.2 55 12.8 76 76 Calm 30.06 1018 10 16 0.00 0.00
9:53 pm 21:53 Clear 61 16.1 54 12.2 78 78 Calm 30.07 1018 10 16 0.00 0.00
10:53 pm 22:53 Clear 60 15.6 54 12.2 80 80 Calm 30.08 1019 10 16 0.00 0.00
11:53 pm 23:53 Clear 58 14.4 53 11.7 84 84 Calm 30.08 1019 10 16 0.00 0.00

Powered by AerisWeather